Tracking 28790 objects as of 19-Apr-2024
HD Live streaming from Space Station
objects crossing your sky now

DELTA 2 R/B(2)

Track DELTA 2 R/B(2) now!


NORAD ID: 22177
Int'l Code: 1992-066C
Perigee: 1,513.2 km
Apogee: 35,881.9 km
Inclination: 19.8 °
Period: 658.3 minutes
Semi major axis: 25068 km
RCS: 3.2718 m2 (large)
Launch date: October 12, 1992
Source: United States (US)
Launch site: AIR FORCE EASTERN TEST RANGE (AFETR)

Note: This is a ROCKET BODY
Your satellite tracking list
Your tracking list is empty




NASA's NSSDC Master Catalog

Two Line Element Set (TLE):
1 22177U 92066C   24109.60548374 -.00000041  00000-0  00000-0 0  9991
2 22177  19.8264 333.2761 6854935 162.1124 159.5809  2.18729908 32427
Source of the keplerian elements: AFSPC